Location: Proctor
(47.8934°N, 114.3048°W)
Time: 17:08:30
(UTC+00:00)

Transit 4A - Pass Details

Date: 19 May 2025
Orbit: 866 x 975 km, 66.8° (Epoch: 13 June)

Event Time Altitude Azimuth Distance (km) Brightness Sun altitude
Rises 06:09:26 0° 297° (WNW) 3,646 11.7 -19.7°
Reaches altitude 10° 06:13:37 10° 323° (NW) 2,679 11.4 -19.9°
Maximum altitude 06:16:34 13° 352° (N) 2,417 11.1 -20.1°
Drops below altitude 10° 06:19:29 10° 20° (NNE) 2,646 11.0 -20.3°
Sets 06:23:34 0° 47° (NE) 3,562 11.3 -20.5°
